Regional Weather Roundup
Issued by NWS

Home | Current Version | Previous Version | Text Only | Print | Product List | Glossary On
Versions: 1 2 3 4 5 6 7 8 9 10 11 12 13 14 15 16 17 18 19 20 21 22 23 24 25 26 27
053
ASUS45 KSLC 221910
RWRUT

UTAH REGIONAL WEATHER ROUNDUP
NATIONAL WEATHER SERVICE SALT LAKE CITY UT
100 PM MDT FRI MAY 22 2015

UTZ001>011-023>025-222000-

NORTHERN UTAH

CITY           SKY/WX    TMP DP  RH WIND       PRES   REMARKS
BRIGHAM CITY   PTSUNNY   62  43  49 S5        29.90F
HILL AFB       CLOUDY    62  47  59 W8        29.90F
LOGAN          SUNNY     60  43  53 CALM      29.89F
OGDEN          CLOUDY    64  46  52 VRB7      29.89F
PROVO AIRPORT  CLOUDY    61  43  51 VRB7      29.92F
SALT LAKE CITY CLOUDY    62  40  44 SW6       29.89F
VERNAL         CLOUDY    56  40  55 SW7       29.97F
WENDOVER       PTSUNNY   63  46  55 E7        29.90F
HEBER CITY     DRIZZLE   46  41  81 CALM      29.99F
WEST JORDAN    MOSUNNY   61  43  51 S13G22    29.92F

$$

UTZ012>022-026-027-222000-

SOUTHERN/CENTRAL UTAH

CITY           SKY/WX    TMP DP  RH WIND       PRES   REMARKS
BLANDING       MOSUNNY   64  27  24 S14G26    30.04F
BRYCE CANYON   PTSUNNY   56  22  26 SE17G25   29.98F
CEDAR CITY     CLOUDY    58  31  35 SW15      29.91S
DELTA          PTSUNNY   62  37  38 NE10      29.88F
HANKSVILLE     MOSUNNY   70  28  21 E5        29.88F
MILFORD        PTSUNNY   62  33  33 S18       29.88R
MOAB/CYNLANDS  PTSUNNY   72  30  21 S20G26    29.85F
PRICE          PTSUNNY   62  35  36 SE5       29.93F
ST GEORGE      CLOUDY    64  37  36 W9        29.87R

$$

REGIONAL REPORTS     COLORADO/ARIZONA

CITY           SKY/WX    TMP DP  RH WIND       PRES   REMARKS
CRAIG, CO      CLOUDY    55  42  61 SW9       30.01F
GRAND JUNCTION MOSUNNY   57  48  72 NE9       29.92S THUNDER
RIFLE          PTSUNNY   58  43  57 S8        29.98F
MONTROSE       PTSUNNY   65  32  29 VRB6      29.96F
CORTEZ         PTSUNNY   64  32  30 S14       29.99F
PAGE, AZ       NOT AVBL
GRAND CANYON   CLOUDY    48  34  58 NW6       29.98F
KINGMAN        LGT RAIN  58  42  55 SW13      29.90F
FLAGSTAFF      MOSUNNY   53  26  35 S21G29    30.01F

$$

REGIONAL REPORTS    NEVADA/IDAHO/WYOMING

CITY           SKY/WX    TMP DP  RH WIND       PRES   REMARKS
LAS VEGAS, NV  RAIN      65  53  65 SE8G17    29.81F
ELY            CLOUDY    51  31  46 SE20G30   29.96S
ELKO           PTSUNNY   62  41  46 CALM      29.90F
POCATELLO, ID  PTSUNNY   58  46  64 S20       29.91F THUNDER
BURLEY         RAIN      56  49  77 NW6       29.88F
EVANSTON, WY   PTSUNNY   51  41  68 SW10      29.98F
ROCK SPRINGS   LGT RAIN  49  42  77 SE5       29.98F
KEMMERER       PTSUNNY   54  39  58 SE3       29.98F

$$



USA.gov is the U.S. government's official web portal to all federal, state and local government web resources and services.